Regional Weather Roundup
Issued by NWS

Home | Current Version | Previous Version | Text Only | Print | Product List | Glossary Off
Versions: 1 2 3 4 5 6 7 8 9 10 11 12 13 14 15 16 17 18 19 20 21 22 23 24 25 26 27 28 29 30 31 32 33 34 35 36 37 38 39 40 41 42 43 44 45 46 47 48 49 50

000
ASUS43 KMKX 040721
RWRWI

WISCONSIN REGIONAL WEATHER ROUNDUP
NATIONAL WEATHER SERVICE MILWAUKEE/SULLIVAN WI
200 AM CDT SAT JUL 04 2015

NOTE: "FAIR" INDICATES FEW OR NO CLOUDS BELOW 12,000 FEET WITH NO
SIGNIFICANT WEATHER AND/OR OBSTRUCTIONS TO VISIBILITY.

WIZ001-002-006>008-014>016-023>028-040800-
NORTHWEST WISCONSIN

CITY           SKY/WX    TMP DP  RH WIND       PRES   REMARKS
SUPERIOR ARPT  CLEAR     55  55 100 CALM      29.91F
ASHLAND        CLEAR     57  57 100 CALM      29.91S FOG
HAYWARD        FOG       56  55  97 CALM      29.92F VSB 1/4
SIREN          CLEAR     58  56  94 CALM      29.91F
CUMBERLAND     CLEAR     61  61 100 CALM      29.93S
RICE LAKE      FOG       63  61  95 CALM      29.93S VSB<1/4
CHETEK         CLEAR     62  61  95 CALM      29.92S
LADYSMITH      CLEAR     58  57  94 CALM      29.94R
EAU CLAIRE     CLEAR     64  56  75 SW7       29.91S
MENOMONIE      CLEAR     63  58  86 CALM      29.92S
NEW RICHMOND   CLEAR     62  60  93 S3        29.93S
OSCEOLA        CLEAR     60  60 100 CALM      29.95R
$$

WIZ003>005-009-010-017-018-040800-
NORTH CENTRAL WISCONSIN

CITY           SKY/WX    TMP DP  RH WIND       PRES   REMARKS
MANITOWISH WTR FOG       53  53 100 CALM      29.93S VSB 1/4
ARBOR VITAE    FOG       57  56  95 CALM      29.93S VSB 3/4
WOODRUFF       FOG       57  56  95 CALM      29.93S VSB 3/4
RHINELANDER    PTCLDY    57  55  93 CALM      29.94S FOG
EAGLE RIVER    FOG       55  55 100 CALM      29.94R VSB 1/4
LAND O LAKES   CLEAR     53  53  99 CALM      29.95R FOG
PHILLIPS       FOG       56  56 100 CALM      29.92S VSB 1/4
TOMAHAWK       FOG       57  55  95 CALM      29.94R VSB 3/4
MEDFORD        PTCLDY    56  55  99 CALM      29.93S
MERRILL        PTCLDY    58  58 100 CALM      29.93S FOG
$$

WIZ029-030-035-036-043>047-040800-
CENTRAL WISCONSIN

CITY           SKY/WX    TMP DP  RH WIND       PRES   REMARKS
WAUSAU         PTCLDY    64  58  80 CALM      29.91F
MOSINEE        CLEAR     59  57  94 NW6       29.94S
MARSHFIELD     CLEAR     58  54  86 SW3       29.93S
STEVENS POINT  CLEAR     57  55  91 CALM      29.94R
WAUPACA        PTCLDY    61  60  94 SW3       29.93S
WAUTOMA        PTCLDY    59  59 100 CALM      29.94S
WISC RAPIDS    CLEAR     58  55  90 CALM      29.94S
CAMP DOUGLAS   FOG       54  54 100 E1        29.93S VSB 3/4
$$

WIZ011>013-019>022-031-037>040-048>050-040800-
NORTHEAST WISCONSIN

CITY           SKY/WX    TMP DP  RH WIND       PRES   REMARKS
ANTIGO         CLOUDY    59  57  93 CALM      29.93S
SHAWANO        MOCLDY    63  58  86 CALM      29.91S
OCONTO         PTCLDY    56  56 100 CALM      29.89R
STURGEON BAY   PTCLDY    61  54  77 SW5       29.92S
GREEN BAY      PTCLDY    62  58  86 SW3       29.90F
MANITOWOC      CLOUDY    63  56  78 MISG      29.91F
APPLETON       MOCLDY    63  55  77 W8        29.92S
CLINTONVILLE   MOCLDY    59  55  88 CALM      29.91R
OSHKOSH        PTCLDY    64  57  78 SW5       29.92S
$$

WIZ032>034-041-042-053>061-040800-
SOUTHWEST WISCONSIN

CITY           SKY/WX    TMP DP  RH WIND       PRES   REMARKS
LA CROSSE      CLEAR     64  61  90 S6        29.93S
SPARTA         PTCLDY    55  53  95 CALM      29.95S
VIROQUA        CLEAR     61  59  94 SW5       29.96S
BOSCOBEL       MOCLDY    56  54  93 CALM      29.96S FOG
PRAIRIE DU CHI CLEAR     58  56  92 CALM      29.95F
PLATTEVILLE    CLEAR     60  56  85 S5        29.97S
$$

WIZ056-057-062-063-064-067-068-040800-
SOUTH CENTRAL WISCONSIN

CITY           SKY/WX    TMP DP  RH WIND       PRES   REMARKS
REEDSBURG      CLEAR     57  56  99 CALM      29.95R
BARABOO/DELLS  CLEAR     58  56  91 CALM      29.95S
LONE ROCK      PTCLDY    56  54  93 CALM      29.96S
MINERAL POINT  CLEAR     61  54  77 SW3       29.97S
MADISON        FAIR      58  55  90 CALM      29.95R
MIDDLETON      FAIR      57  56  97 CALM      29.96S
WATERTOWN      CLEAR     55  55 100 CALM      29.94S
MONROE         CLEAR     63  54  72 W8        29.96S
JANESVILLE     CLEAR     59  55  88 CALM      29.95S
$$

WIZ051-052-058>065-066-070>072-040800-
SOUTHEAST WISCONSIN

CITY           SKY/WX    TMP DP  RH WIND       PRES   REMARKS
MILWAUKEE      PTCLDY    62  52  69 SW6       29.94S
WAUKESHA       CLEAR     57  52  82 CALM      29.96S
MILWAUKEE/TIMM CLEAR     59  52  77 CALM      29.95S
RACINE         CLEAR     61  51  70 W3        29.96S
BURLINGTON     CLEAR     52  51  99 CALM      29.95S FOG
KENOSHA        CLEAR     55  52  89 SW3       29.95S
FOND DU LAC    PTCLDY    63  56  78 SW8       29.93S
SHEBOYGAN      CLOUDY    59  53  80 SW5       29.92F
WEST BEND      PTCLDY    55  52  88 CALM      29.94S
JUNEAU         CLEAR     58  54  85 SW3       29.95S
$$

LSZ147-162-040800-
LAKE SUPERIOR

STATION/POSITION TIME  TEMP    WIND        PRES    WAVE
                       AIR SEA DIR/SP/G            HT/PER
                 (UTC) (F)     (DEG/KT/KT) (MB)    (FT/S)
W MID LAKE BUOY  0650   42 38   40/  4/  4 1013.5R   1
DEVILS ISLAND    0700   58      80/  7/  8 1013.3R
SAXON HARBOR     0600   64      50/  7/ 13 1012.5R
$$

LMZ867-665-643>646-040800-
LAKE MICHIGAN

STATION/POSITION TIME  TEMP    WIND        PRES    WAVE
                       AIR SEA DIR/SP/G            HT/PER
                 (UTC) (F)     (DEG/KT/KT) (MB)    (FT/S)
CHAMBERS ISLAND  0600   66     200/  4/  9 1012.2R
S GREEN BAY BUOY 0700   69 68  220/  8/ 10 1013.6R
N MID LAKE BUOY  0650   49 43  200/  6/  8 1012.1S   2/ 4
NORTHPORT PIER   0600   66     260/  2/  6 1011.9S
SISTER BAY       0614   68     240/  6/  8   N/A
ALGOMA LAKESHORE 0626             CALM       N/A
KEWAUNEE LAKESHO 0600   64     180/  3/  5 1012.0F
SHEBOYGAN LAKESH 0700   62     210/  5/  6 1013.4F
PORT WASHINGTON  0640   60     240/  2/  3 1014.2F
ATWATER BUOY     0700   65 60  220/  6/  6 1015.1F
MILWAUKEE LAKESH 0700   65     230/  8/  9   N/A
KENOSHA   LAKESH 0700   65     240/  8/ 10 1013.9S
$$

TC  - TEMPERATURE IN CELSIUS
VSB - VISIBILITY IN STATUTE MILES
WCI - WIND CHILL INDEX
HX  - HEAT INDEX




USA.gov is the U.S. government's official web portal to all federal, state and local government web resources and services.